Location: Dambec
(49.6948°N, 1.4694°E)
Time: 22:06:30
(UTC+00:00)

Daily predictions for brighter satellites

Satellite Brightness Start Highest point End
(mag) Time Altitude Azimuth Time Altitude Azimuth Time Altitude Azimuth
Cosmos 2278 Rocket 2.3 16:52:31 10° NNW 16:58:09 59° ENE 17:03:44 10° SE
Cosmos 2219 Rocket 2.6 16:55:17 10° SW 17:00:50 65° WNW 17:06:26 10° NNE
COSMO-SKYMED 1 4.1 16:58:02 10° NE 17:00:58 18° E 17:03:54 10° SE
ARGOS Delta rocket 3.9 16:58:03 10° SSE 17:02:33 52° ENE 17:06:53 10° N
ISS -2.1 17:00:14 10° SSW 17:02:54 22° SE 17:05:34 10° E
Cosmos 2084 Rocket 4.2 17:00:10 10° NW 17:04:11 55° SW 17:08:06 10° SSE
CZ-4C R/B 3.4 17:01:29 10° SSE 17:04:18 17° ESE 17:07:28 10° ENE
CSL-04 DEB 4.3 17:02:40 10° SSE 17:06:26 55° ENE 17:10:10 10° N
Meteor 1-21 4.4 17:03:24 10° S 17:08:51 56° E 17:14:23 10° NNE
Cosmos 1758 4.1 17:06:34 10° NNW 17:10:21 55° W 17:14:08 10° S
USA 306 2.7 17:09:02 10° NW 17:10:49 25° N 17:12:55 11° ENE
SL-14 R/B 3.8 17:07:21 10° SSW 17:11:04 60° WNW 17:14:50 10° N
CORIOLIS 4.2 17:05:55 10° SSE 17:11:20 87° ENE 17:16:50 10° NNW
Cosmos 1763 Rocket 3.6 17:06:47 10° S 17:11:51 55° ESE 17:16:53 10° NNE
Spot 4 Rocket 4.0 17:07:47 10° SSE 17:12:53 73° ENE 17:18:01 10° NNW
YAOGAN 1 3.8 17:10:44 10° ESE 17:13:49 20° ENE 17:16:54 10° NNE
Cosmos 1733 Rocket 3.4 17:09:51 10° N 17:14:03 43° ENE 17:18:15 10° SSE
Cosmos 540 Rocket 3.7 17:12:40 10° S 17:17:35 49° ESE 17:22:31 10° NNE
Landsat 7 4.4 17:15:35 10° SE 17:19:48 34° ENE 17:24:03 10° N
Cosmos 2322 3.8 17:14:28 10° SSW 17:20:12 85° WNW 17:25:59 10° NNE
Cosmos 468 Rocket 4.4 17:16:41 10° S 17:21:32 42° ESE 17:26:22 10° NE
USA 215 3.5 17:16:24 10° ENE 17:22:52 64° NNW 17:29:19 10° W
Cosmos 2228 Rocket 3.5 17:21:13 10° SSE 17:25:29 42° E 17:29:47 10° NNE
Cosmos 2279 Rocket 3.9 17:19:59 10° N 17:26:13 73° E 17:32:23 10° SSE
NOSS 8 (A) 4.0 17:25:13 10° NW 17:28:08 80° NE 17:31:30 10° SE
Cosmos 1898 Rocket 3.7 17:23:40 10° NNW 17:28:51 51° ENE 17:34:00 10° SE
Aureole 1 Rocket 4.4 17:25:10 10° NNW 17:32:54 68° ENE 17:39:51 10° SE
PSLV R/B 3.5 17:29:35 10° SSE 17:33:39 81° WSW 17:37:46 10° NNW
Okean 1-7 3.7 17:35:26 10° SSE 17:39:13 31° E 17:42:59 10° NNE
SL-16 R/B 3.6 17:35:53 10° SE 17:39:26 17° E 17:40:55 16° E
Cosmos 1980 3.8 17:33:57 10° S 17:39:26 55° ESE 17:44:57 10° NE
NOSS 8 (E) 4.4 17:38:21 10° SW 17:42:27 77° SE 17:44:41 19° NE
SMAP 4.1 17:38:17 10° S 17:42:48 50° W 17:47:21 10° NNW
Cosmos 1953 2.0 17:39:12 10° N 17:42:57 83° E 17:46:40 10° S
NOSS 0 Rocket 3.9 17:43:10 10° SSW 17:49:19 83° ESE 17:55:30 10° NNE
SKYMED 2 3.8 17:45:08 10° NNE 17:49:22 48° E 17:53:34 10° S
Cosmos 1818 3.8 17:46:08 10° NNW 17:51:27 49° NE 17:56:19 12° ESE
ATLAS 2AS CENTAUR R/B 2.8 17:46:17 10° NW 17:53:00 53° NE 17:59:05 12° ESE
SL-16 R/B 4.5 17:49:11 10° N 17:54:06 25° NW 17:59:02 10° WSW
NOSS 8 (H) 4.3 17:50:14 10° SW 17:54:10 86° SE 17:55:55 25° NE
Cosmos 2369 Rocket 3.1 17:49:40 10° NNW 17:54:28 28° NE 17:56:54 21° E
Resurs 01 Rocket 3.8 17:57:26 11° NNE 17:57:26 11° NNE 17:57:36 10° NNE
ACS3 Solar Sail 1.9 17:50:20 10° SSE 17:56:37 61° ENE 18:02:53 10° N
COSMOS 2428 3.3 17:51:04 10° SW 17:56:40 58° NW 18:02:18 10° NNE
IGS 5A 4.2 17:53:33 10° S 17:57:30 54° W 18:01:27 10° NNW
Cosmos 2333 Rocket 4.2 17:54:31 10° W 17:58:40 20° NW 18:02:50 10° N
Cosmos 372 Rocket 3.8 17:53:49 10° NNW 17:58:57 82° ENE 18:04:02 10° SSE
DNEPR-1 R/B 4.1 17:58:56 10° NW 18:03:45 62° SW 18:07:58 10° SSE
BREEZE-M DEB (TANK) 3.4 17:56:19 10° WSW 18:05:34 85° S 18:07:22 30° E
Cosmos 1908 Rocket 3.7 18:02:55 10° N 18:07:09 48° ENE 18:11:20 10° SSE
Cosmos 2322 Rocket 4.4 18:04:31 10° WNW 18:08:02 17° NNW 18:11:34 10° N
Cosmos 2360 Rocket 4.4 18:07:03 10° WNW 18:10:53 18° NW 18:14:44 10° N
Meteor 1-31 Rocket 2.4 18:09:19 10° SSE 18:12:52 78° ENE 18:16:28 10° N
EO 1 Delta rocket 3.7 18:08:32 10° NNE 18:13:18 70° E 18:17:55 10° S
Okean 3 4.0 18:09:22 10° SSW 18:13:24 58° WNW 18:17:29 10° N
Cosmos 1707 Rocket 4.0 18:09:47 10° SSW 18:14:12 65° WNW 18:18:37 10° N
Okean 2 3.7 18:13:16 10° SSW 18:17:11 65° WNW 18:21:08 10° N
Cosmos 2297 4.1 18:12:19 10° NNW 18:17:47 43° NE 18:20:17 28° ESE
Cosmos 1937 Rocket 3.4 18:13:46 10° NNW 18:18:57 90° NE 18:24:07 10° SSE
CZ-2C R/B 2.7 18:22:18 47° NNE 18:22:18 47° NNE 18:25:03 10° N
Cosmos 2026 Rocket 4.2 18:16:55 10° SSE 18:22:56 47° E 18:28:59 10° NNE
Cosmos 858 Rocket 4.4 18:18:17 10° NNW 18:23:32 77° ENE 18:28:44 10° SSE
BREEZE-M DEB (TANK) 3.6 18:12:09 10° WSW 18:26:53 67° SSE 18:28:56 35° E
Cosmos 1943 Rocket 3.4 18:22:22 10° NW 18:27:41 43° WSW 18:32:56 10° S
RESURS DK-1 4.0 18:24:49 10° NW 18:28:28 34° WSW 18:32:06 10° S
Cosmos 1428 Rocket 4.4 18:23:34 10° S 18:29:43 69° E 18:35:50 10° NNE
YAOGAN 3 4.4 18:26:39 10° SSE 18:30:53 81° ENE 18:35:10 10° NNW
Cosmos 2237 Rocket 2.5 18:27:53 10° SW 18:33:34 69° WNW 18:37:58 17° NNE
BlueWalker 3 1.6 18:30:00 10° WNW 18:33:40 82° NNE 18:33:53 76° ENE
COSMO-SKYMED 1 3.1 18:33:13 10° N 18:37:30 58° WNW 18:41:45 10° SSW
CZ-4B R/B 4.3 18:35:12 10° S 18:38:45 53° W 18:42:13 10° NNW
ISS -3.6 18:35:58 10° WSW 18:39:01 72° WSW 18:39:01 72° WSW
NOAA 6 4.4 18:35:37 10° S 18:40:40 64° WSW 18:45:48 10° NNW
Cosmos 2278 Rocket 4.4 18:37:12 10° NW 18:41:51 27° WSW 18:46:28 10° SSW
USA 306 4.0 18:39:49 10° WNW 18:40:49 22° NW 18:40:49 22° NW
Cosmos 1782 Rocket 4.1 18:38:41 10° N 18:41:41 40° NNE 18:41:41 40° NNE
Cosmos 2344 3.9 18:36:35 10° WSW 18:43:52 58° NW 18:48:48 22° NE
Cosmos 2219 Rocket 4.4 18:42:13 10° WNW 18:45:55 18° NW 18:49:38 10° N
YAOGAN 1 3.2 18:45:11 10° S 18:49:22 54° W 18:53:35 10° NNW
CZ-4C R/B 1.9 18:47:02 10° SW 18:51:32 80° NW 18:53:04 47° NNE
YAOGAN 11 3.8 18:51:30 79° E 18:51:34 80° ESE 18:55:51 10° SSW
Nadezhda 4 Rocket 4.3 18:47:15 10° SSW 18:53:18 65° WNW 18:59:28 10° N
ATLAS 5 CENTAUR R/B 2.5 18:53:04 10° SW 18:54:39 27° SSW 18:54:39 27° SSW
Cosmos 2195 Rocket 4.4 18:51:37 10° S 18:57:49 88° W 19:04:01 10° N
Meteor 1-24 Rocket 3.8 18:52:07 10° S 18:57:52 56° E 18:58:08 55° E
SPOT 1/Viking Rocket 3.7 18:55:29 10° S 19:00:38 72° WSW 19:05:48 10° NNW
Cosmos 1703 Rocket 3.7 18:56:26 10° SSW 19:00:52 72° WNW 19:02:12 44° N
Resurs 1-3 4.0 19:00:52 10° S 19:05:08 61° W 19:09:26 10° NNW
USA 215 3.8 19:03:32 38° NE 19:05:23 47° N 19:11:35 10° WNW
Meteor 2-5 Rocket 3.9 19:02:47 10° S 19:07:38 57° SE 19:07:38 57° SE
Cosmos 1703 4.5 19:07:51 10° SSW 19:10:32 36° WSW 19:10:32 36° WSW
Cosmos 1656 Rocket 3.8 19:06:54 10° NNW 19:12:22 69° WSW 19:14:50 33° S
Cosmos 841 Rocket 4.2 19:07:31 10° SW 19:12:38 52° WNW 19:15:03 29° N
SL-16 R/B 2.1 19:17:05 10° SSW 19:22:46 87° WNW 19:22:50 86° NNW
Cosmos 1553 Rocket 3.8 19:17:48 10° N 19:23:51 80° ENE 19:23:51 80° ENE
ADEOS 3.7 19:29:31 69° NW 19:29:31 69° NW 19:34:15 10° NNW
Resurs 01 Rocket 4.1 19:34:52 13° NNW 19:34:52 13° NNW 19:35:21 10° NNW
Cosmos 2369 Rocket 2.4 19:33:23 10° NNW 19:38:45 65° WSW 19:38:45 65° WSW
Cosmos 1092 Rocket 4.5 19:33:17 10° SSW 19:39:21 57° WNW 19:45:31 10° N
ACS3 Solar Sail 3.7 19:35:06 10° SSW 19:40:33 29° W 19:46:01 10° NNW
ATLAS 2AS CENTAUR R/B 3.4 19:37:26 10° NW 19:43:51 46° WSW 19:46:35 31° S
Cosmos 839 Rocket 4.4 19:47:30 10° SW 19:52:33 56° SW 19:52:33 56° SW
Cosmos 2237 Rocket 4.4 20:14:48 10° W 20:18:43 19° NW 20:19:48 18° NNW
CZ-4C R/B 4.4 20:36:27 10° WNW 20:38:08 19° WNW 20:38:08 19° WNW
